RYR496E LEZL-GCFV

Flight info

Callsign RYR496E
Flight time N/A
Altitude 35000
Route CLANA N857 KORNO/N0441F370 UN857 ABODA/N0443F390 UN857 TERTO
Aircraft B738/M-SDE3FGILRWY/SB1

Departure

Time N/A
Airport Seville Airport (LEZL)

Arrival

Time 2026-05-03 22:46
Airport Fuerteventura Airport (GCFV)
Time Latitude Longitude Altitude Speed Heading
2026-05-03 21:22 34.37470 -8.85567 39109 ft 386 kts 224°
2026-05-03 21:22 34.35369 -8.87583 39113 ft 386 kts 224°
2026-05-03 21:23 34.31160 -8.91621 39118 ft 386 kts 224°
2026-05-03 21:23 34.26953 -8.95654 39120 ft 386 kts 224°
2026-05-03 21:24 34.22747 -8.99682 39120 ft 386 kts 224°
2026-05-03 21:24 34.18542 -9.03703 39120 ft 386 kts 224°
2026-05-03 21:25 34.14329 -9.07727 39119 ft 385 kts 224°
2026-05-03 21:25 34.10126 -9.11737 39112 ft 385 kts 224°
2026-05-03 21:26 34.05925 -9.15738 39117 ft 385 kts 224°
2026-05-03 21:26 34.01726 -9.19734 39122 ft 385 kts 224°
2026-05-03 21:27 33.97520 -9.23730 39120 ft 385 kts 224°
2026-05-03 21:27 33.93316 -9.27720 39119 ft 385 kts 224°
2026-05-03 21:28 33.89105 -9.31710 39121 ft 385 kts 224°
2026-05-03 21:28 33.84888 -9.35702 39101 ft 385 kts 224°
2026-05-03 21:29 33.80679 -9.39681 39115 ft 385 kts 224°
2026-05-03 21:29 33.76467 -9.43656 39122 ft 385 kts 224°
2026-05-03 21:30 33.72255 -9.47629 39129 ft 385 kts 224°
2026-05-03 21:30 33.68067 -9.51572 39124 ft 385 kts 224°
2026-05-03 21:31 33.63855 -9.55533 39123 ft 385 kts 224°
2026-05-03 21:31 33.59641 -9.59491 39122 ft 385 kts 224°
2026-05-03 21:32 33.55431 -9.63440 39118 ft 384 kts 224°
2026-05-03 21:32 33.51225 -9.67380 39116 ft 383 kts 224°
2026-05-03 21:33 33.47023 -9.71312 39128 ft 383 kts 224°
2026-05-03 21:33 33.42827 -9.75233 39133 ft 383 kts 224°
2026-05-03 21:34 33.38626 -9.79154 39123 ft 383 kts 224°
2026-05-03 21:34 33.34427 -9.83069 39125 ft 382 kts 224°
2026-05-03 21:35 33.30231 -9.86976 39122 ft 382 kts 224°
2026-05-03 21:35 33.26035 -9.90877 39113 ft 382 kts 223°
2026-05-03 21:36 33.21847 -9.94766 39121 ft 382 kts 223°
2026-05-03 21:36 33.17648 -9.98661 39129 ft 382 kts 223°
2026-05-03 21:37 33.13456 -10.02546 39129 ft 382 kts 223°
2026-05-03 21:37 33.09257 -10.06431 39128 ft 382 kts 223°
2026-05-03 21:38 33.05057 -10.10314 39125 ft 382 kts 223°
2026-05-03 21:38 33.00851 -10.14195 39125 ft 382 kts 223°
2026-05-03 21:39 32.96673 -10.18043 39128 ft 382 kts 223°
2026-05-03 21:39 32.92431 -10.21944 39128 ft 383 kts 223°
2026-05-03 21:40 32.88215 -10.25819 39125 ft 383 kts 223°
2026-05-03 21:40 32.84001 -10.29687 39128 ft 383 kts 223°
2026-05-03 21:41 32.79784 -10.33554 39131 ft 383 kts 223°
2026-05-03 21:41 32.75565 -10.37418 39131 ft 383 kts 223°
2026-05-03 21:42 32.71376 -10.41249 39105 ft 382 kts 223°
2026-05-03 21:42 32.67160 -10.45101 39120 ft 382 kts 223°
2026-05-03 21:43 32.62950 -10.48943 39125 ft 382 kts 223°
2026-05-03 21:43 32.58741 -10.52779 39126 ft 382 kts 223°
2026-05-03 21:44 32.54530 -10.56612 39125 ft 382 kts 223°
2026-05-03 21:44 32.50320 -10.60439 39130 ft 382 kts 223°
2026-05-03 21:45 32.46102 -10.64270 39126 ft 382 kts 223°
2026-05-03 21:45 32.41890 -10.68089 39102 ft 381 kts 223°
2026-05-03 21:46 32.37682 -10.71901 39121 ft 381 kts 223°
2026-05-03 21:46 32.33475 -10.75708 39121 ft 381 kts 223°
2026-05-03 21:47 32.29269 -10.79509 39129 ft 381 kts 223°
2026-05-03 21:47 32.25058 -10.83310 39131 ft 381 kts 223°
2026-05-03 21:48 32.20842 -10.87111 39132 ft 381 kts 223°
2026-05-03 21:48 32.16626 -10.90908 39125 ft 381 kts 223°
2026-05-03 21:49 32.12409 -10.94700 39117 ft 381 kts 222°
2026-05-03 21:49 32.08189 -10.98491 39123 ft 381 kts 222°
2026-05-03 21:50 32.03968 -11.02278 39129 ft 382 kts 222°
2026-05-03 21:50 31.99740 -11.06068 39126 ft 382 kts 222°
2026-05-03 21:51 31.95506 -11.09858 39129 ft 382 kts 222°
2026-05-03 21:51 31.91270 -11.13646 39128 ft 383 kts 222°
2026-05-03 21:52 31.87028 -11.17434 39126 ft 383 kts 222°
2026-05-03 21:52 31.82783 -11.21221 39114 ft 383 kts 222°
2026-05-03 21:53 31.79258 -11.24364 39123 ft 383 kts 222°
2026-05-03 21:53 31.75017 -11.28138 39131 ft 383 kts 222°
2026-05-03 21:54 31.70775 -11.31917 39129 ft 383 kts 222°
2026-05-03 21:54 31.66526 -11.35701 39128 ft 383 kts 222°
2026-05-03 21:55 31.62279 -11.39479 39125 ft 383 kts 222°
2026-05-03 21:55 31.58035 -11.43251 39128 ft 383 kts 222°
2026-05-03 21:56 31.53786 -11.47022 39120 ft 382 kts 222°
2026-05-03 21:56 31.49543 -11.50784 39123 ft 382 kts 222°
2026-05-03 21:57 31.45301 -11.54540 39128 ft 382 kts 222°
2026-05-03 21:57 31.41085 -11.58270 39125 ft 382 kts 222°
2026-05-03 21:58 31.36838 -11.62022 39130 ft 382 kts 222°
2026-05-03 21:58 31.32593 -11.65769 39127 ft 382 kts 222°
2026-05-03 21:59 31.28343 -11.69514 39126 ft 383 kts 222°
2026-05-03 21:59 31.24093 -11.73256 39114 ft 382 kts 222°
2026-05-03 22:00 31.19844 -11.76993 39128 ft 382 kts 222°
2026-05-03 22:00 31.15595 -11.80725 39132 ft 383 kts 222°
2026-05-03 22:01 31.11338 -11.84462 39129 ft 383 kts 222°
2026-05-03 22:01 31.07076 -11.88197 39129 ft 384 kts 222°
2026-05-03 22:02 31.02803 -11.91937 39131 ft 384 kts 222°
2026-05-03 22:02 30.98526 -11.95677 39131 ft 384 kts 222°
2026-05-03 22:03 30.94248 -11.99413 39120 ft 384 kts 221°
2026-05-03 22:03 30.89963 -12.03151 39128 ft 385 kts 221°
2026-05-03 22:04 30.85677 -12.06886 39135 ft 385 kts 221°
2026-05-03 22:04 30.81390 -12.10618 39130 ft 385 kts 221°
2026-05-03 22:05 30.77095 -12.14352 39131 ft 385 kts 221°
2026-05-03 22:05 30.72804 -12.18078 39131 ft 385 kts 221°
2026-05-03 22:06 30.68513 -12.21801 39130 ft 385 kts 221°
2026-05-03 22:06 30.64221 -12.25520 39122 ft 384 kts 221°
2026-05-03 22:07 30.59938 -12.29228 39129 ft 384 kts 221°
2026-05-03 22:07 30.55650 -12.32937 39135 ft 384 kts 221°
2026-05-03 22:08 30.51393 -12.36613 39135 ft 384 kts 221°
2026-05-03 22:08 30.47099 -12.40309 39129 ft 384 kts 221°
2026-05-03 22:09 30.42804 -12.43994 39132 ft 384 kts 221°
2026-05-03 22:10 30.36352 -12.49526 39137 ft 385 kts 221°
2026-05-03 22:10 30.32054 -12.53209 39132 ft 384 kts 221°
2026-05-03 22:11 30.27762 -12.56881 39139 ft 384 kts 221°
2026-05-03 22:11 30.23459 -12.60560 39134 ft 385 kts 221°
2026-05-03 22:12 30.19151 -12.64238 39140 ft 385 kts 221°
2026-05-03 22:12 30.14841 -12.67915 39142 ft 385 kts 221°
2026-05-03 22:13 30.10520 -12.71590 39143 ft 386 kts 220°
2026-05-03 22:13 30.05884 -12.74811 39147 ft 391 kts 214°
2026-05-03 22:14 30.01086 -12.77770 39141 ft 391 kts 214°
2026-05-03 22:14 29.96291 -12.80758 39142 ft 391 kts 215°
2026-05-03 22:15 29.91528 -12.83774 39145 ft 391 kts 215°
2026-05-03 22:15 29.86763 -12.86812 38918 ft 395 kts 215°
2026-05-03 22:15 29.84357 -12.88349 38445 ft 395 kts 215°
2026-05-03 22:16 29.81958 -12.89878 37909 ft 392 kts 215°
2026-05-03 22:16 29.79573 -12.91395 37325 ft 392 kts 214°
2026-05-03 22:16 29.77191 -12.92912 36781 ft 391 kts 214°
2026-05-03 22:16 29.74811 -12.94426 36191 ft 391 kts 214°
2026-05-03 22:17 29.72434 -12.95939 35602 ft 392 kts 214°
2026-05-03 22:17 29.70046 -12.97458 35001 ft 393 kts 214°
2026-05-03 22:17 29.67678 -12.98964 34372 ft 396 kts 214°
2026-05-03 22:17 29.65264 -13.00497 33845 ft 395 kts 214°
2026-05-03 22:18 29.62863 -13.02019 33303 ft 393 kts 214°
2026-05-03 22:18 29.60476 -13.03531 32844 ft 390 kts 214°
2026-05-03 22:18 29.58107 -13.05032 32391 ft 387 kts 214°
2026-05-03 22:18 29.55754 -13.06522 31942 ft 385 kts 214°
2026-05-03 22:19 29.53416 -13.08003 31503 ft 383 kts 214°
2026-05-03 22:19 29.51094 -13.09473 31063 ft 381 kts 213°
2026-05-03 22:19 29.48780 -13.10937 30631 ft 379 kts 213°
2026-05-03 22:19 29.46479 -13.12393 30170 ft 378 kts 213°
2026-05-03 22:20 29.44179 -13.13847 29666 ft 376 kts 213°
2026-05-03 22:20 29.41899 -13.15288 29190 ft 373 kts 213°
2026-05-03 22:20 29.39634 -13.16718 28729 ft 370 kts 213°
2026-05-03 22:20 29.37389 -13.18134 28278 ft 367 kts 213°
2026-05-03 22:21 29.35148 -13.19513 27839 ft 365 kts 211°
2026-05-03 22:21 29.32868 -13.20785 27407 ft 364 kts 210°
2026-05-03 22:21 29.30585 -13.22013 26975 ft 361 kts 210°
2026-05-03 22:21 29.28316 -13.23232 26549 ft 359 kts 210°
2026-05-03 22:22 29.26065 -13.24455 26121 ft 357 kts 210°
2026-05-03 22:22 29.23829 -13.25679 25700 ft 355 kts 210°
2026-05-03 22:22 29.21604 -13.26899 25284 ft 354 kts 210°
2026-05-03 22:22 29.19383 -13.28119 24842 ft 354 kts 210°
2026-05-03 22:23 29.17164 -13.29334 24401 ft 355 kts 210°
2026-05-03 22:23 29.14924 -13.30562 23929 ft 359 kts 209°
2026-05-03 22:23 29.12654 -13.31805 23448 ft 363 kts 209°
2026-05-03 22:23 29.10378 -13.33051 22948 ft 362 kts 209°
2026-05-03 22:24 29.08110 -13.34289 22473 ft 360 kts 209°
2026-05-03 22:24 29.05860 -13.35518 22017 ft 358 kts 209°
2026-05-03 22:24 29.03613 -13.36744 21570 ft 357 kts 209°
2026-05-03 22:24 29.01380 -13.37963 21129 ft 355 kts 209°
2026-05-03 22:25 28.99152 -13.39179 20689 ft 354 kts 209°
2026-05-03 22:25 28.96933 -13.40390 20252 ft 353 kts 209°
2026-05-03 22:25 28.94716 -13.41599 19817 ft 352 kts 209°
2026-05-03 22:25 28.92510 -13.42801 19381 ft 350 kts 209°
2026-05-03 22:26 28.90319 -13.43995 18944 ft 348 kts 209°
2026-05-03 22:26 28.88872 -13.44783 18649 ft 348 kts 209°
2026-05-03 22:26 28.85967 -13.46364 18015 ft 346 kts 209°
2026-05-03 22:26 28.83806 -13.47540 17556 ft 343 kts 209°
2026-05-03 22:27 28.81656 -13.48709 17143 ft 340 kts 209°
2026-05-03 22:27 28.79529 -13.49865 16719 ft 338 kts 209°
2026-05-03 22:27 28.77415 -13.51013 16300 ft 336 kts 209°
2026-05-03 22:27 28.75342 -13.52139 15891 ft 333 kts 209°
2026-05-03 22:28 28.73253 -13.53274 15483 ft 332 kts 209°
2026-05-03 22:28 28.71181 -13.54398 15076 ft 330 kts 209°
2026-05-03 22:28 28.69120 -13.55516 14671 ft 328 kts 209°
2026-05-03 22:28 28.67063 -13.56632 14263 ft 327 kts 209°
2026-05-03 22:29 28.65008 -13.57746 13832 ft 327 kts 209°
2026-05-03 22:29 28.62959 -13.58856 13390 ft 325 kts 209°
2026-05-03 22:29 28.60920 -13.59961 12963 ft 324 kts 208°
2026-05-03 22:29 28.58919 -13.61044 12553 ft 322 kts 208°
2026-05-03 22:30 28.56904 -13.62134 12150 ft 320 kts 208°
2026-05-03 22:30 28.54893 -13.63221 11733 ft 319 kts 208°
2026-05-03 22:30 28.52896 -13.64297 11356 ft 317 kts 207°
2026-05-03 22:30 28.50881 -13.65302 10958 ft 315 kts 206°
2026-05-03 22:31 28.48891 -13.66261 10562 ft 306 kts 206°
2026-05-03 22:31 28.46956 -13.67192 10184 ft 297 kts 205°
2026-05-03 22:31 28.44966 -13.67632 10041 ft 286 kts 183°
2026-05-03 22:31 28.42959 -13.67457 9485 ft 296 kts 174°
2026-05-03 22:32 28.40946 -13.67099 9057 ft 297 kts 174°
2026-05-03 22:32 28.38932 -13.66741 8704 ft 289 kts 175°
2026-05-03 22:32 28.36960 -13.66410 8285 ft 284 kts 175°
2026-05-03 22:32 28.35082 -13.65877 8080 ft 276 kts 156°
2026-05-03 22:33 28.33435 -13.64832 8116 ft 268 kts 153°
2026-05-03 22:33 28.31816 -13.63795 8112 ft 268 kts 154°
2026-05-03 22:33 28.30175 -13.62761 8125 ft 272 kts 154°
2026-05-03 22:33 28.28506 -13.61719 8132 ft 276 kts 154°
2026-05-03 22:34 28.26826 -13.60675 8125 ft 274 kts 154°
2026-05-03 22:34 28.25175 -13.59663 8112 ft 271 kts 158°
2026-05-03 22:34 28.23375 -13.59299 8070 ft 261 kts 194°
2026-05-03 22:34 28.21726 -13.60046 8122 ft 257 kts 209°
2026-05-03 22:35 28.20097 -13.60933 8120 ft 262 kts 210°
2026-05-03 22:35 28.18445 -13.61802 8115 ft 261 kts 207°
2026-05-03 22:35 28.16806 -13.62653 8015 ft 257 kts 208°
2026-05-03 22:35 28.15191 -13.63487 7884 ft 252 kts 209°
2026-05-03 22:36 28.13630 -13.64289 7761 ft 248 kts 207°
2026-05-03 22:36 28.12070 -13.65088 7633 ft 245 kts 207°
2026-05-03 22:36 28.10531 -13.65873 7503 ft 239 kts 207°
2026-05-03 22:36 28.09158 -13.66849 7260 ft 232 kts 233°
2026-05-03 22:37 28.08575 -13.68496 6788 ft 226 kts 273°
2026-05-03 22:37 28.08923 -13.70199 6400 ft 222 kts 294°
2026-05-03 22:37 28.09760 -13.71671 5907 ft 226 kts 313°
2026-05-03 22:37 28.10842 -13.72968 5496 ft 228 kts 315°
2026-05-03 22:38 28.11946 -13.74267 5132 ft 227 kts 315°
2026-05-03 22:38 28.13036 -13.75556 4776 ft 226 kts 316°
2026-05-03 22:38 28.14101 -13.76824 4550 ft 225 kts 317°
2026-05-03 22:38 28.15170 -13.78104 4372 ft 223 kts 315°
2026-05-03 22:39 28.16232 -13.79379 4224 ft 222 kts 316°
2026-05-03 22:39 28.17291 -13.80657 4076 ft 223 kts 316°
2026-05-03 22:39 28.18349 -13.81935 3934 ft 222 kts 316°
2026-05-03 22:39 28.19393 -13.83198 3798 ft 216 kts 316°
2026-05-03 22:40 28.20407 -13.84397 3658 ft 206 kts 319°
2026-05-03 22:40 28.21445 -13.85490 3516 ft 200 kts 321°
2026-05-03 22:40 28.22484 -13.86537 3373 ft 200 kts 325°
2026-05-03 22:40 28.23748 -13.87024 3235 ft 198 kts
2026-05-03 22:41 28.25090 -13.86951 3124 ft 189 kts
2026-05-03 22:41 28.26372 -13.86969 3035 ft 180 kts
2026-05-03 22:41 28.27602 -13.86954 3028 ft 176 kts
2026-05-03 22:41 28.28828 -13.86921 2976 ft 178 kts
2026-05-03 22:42 28.30086 -13.86881 2774 ft 183 kts
2026-05-03 22:42 28.31351 -13.86839 2546 ft 180 kts
2026-05-03 22:42 28.32583 -13.86797 2302 ft 175 kts
2026-05-03 22:42 28.33780 -13.86758 2077 ft 169 kts
2026-05-03 22:43 28.34918 -13.86720 1859 ft 163 kts
2026-05-03 22:43 28.36037 -13.86683 1650 ft 159 kts
2026-05-03 22:43 28.37096 -13.86648 1455 ft 144 kts
2026-05-03 22:43 28.38074 -13.86616 1251 ft 137 kts
2026-05-03 22:44 28.39018 -13.86586 1021 ft 138 kts
2026-05-03 22:44 28.39973 -13.86552 851 ft 136 kts
2026-05-03 22:44 28.40910 -13.86528 706 ft 135 kts
2026-05-03 22:44 28.41837 -13.86485 496 ft 131 kts
2026-05-03 22:45 28.42735 -13.86474 367 ft 129 kts
2026-05-03 22:45 28.43622 -13.86433 212 ft 130 kts
2026-05-03 22:45 28.44507 -13.86401 66 ft 122 kts
2026-05-03 22:45 28.45145 -13.86379 82 ft 60 kts
2026-05-03 22:46 28.45437 -13.86370 84 ft 35 kts
2026-05-03 22:46 28.45607 -13.86364 89 ft 12 kts
2026-05-03 22:46 28.45658 -13.86410 90 ft 10 kts 276°
2026-05-03 22:46 28.45661 -13.86488 89 ft 10 kts 270°
2026-05-03 22:47 28.45667 -13.86533 89 ft 5 kts 296°
2026-05-03 22:47 28.45693 -13.86562 90 ft 5 kts 320°
2026-05-03 22:47 28.45709 -13.86598 91 ft 5 kts 281°
2026-05-03 22:47 28.45711 -13.86638 94 ft 5 kts 270°
2026-05-03 22:48 28.45711 -13.86677 94 ft 5 kts 269°
2026-05-03 22:48 28.45698 -13.86715 93 ft 6 kts 228°
2026-05-03 22:48 28.45652 -13.86726 89 ft 7 kts 180°
2026-05-03 22:48 28.45598 -13.86727 92 ft 9 kts 181°
2026-05-03 22:49 28.45560 -13.86731 88 ft 4 kts 200°
2026-05-03 22:49 28.45547 -13.86763 89 ft 5 kts 263°
2026-05-03 22:49 28.45545 -13.86797 89 ft 2 kts 266°
2026-05-03 22:49 28.45546 -13.86814 89 ft 2 kts 276°
2026-05-03 22:50 28.45547 -13.86824 89 ft 1 kts 277°
2026-05-03 22:50 28.45547 -13.86826 89 ft 0 kts 277°